Location: Beaver Meadows
(40.3728°N, 105.6136°W)
Time: 05:49:48
(UTC-06:00)

ISS - Visible Passes

Search period start: 26 April 2017 00:00
Search period end: 06 May 2017 00:00
Orbit: 400 x 409 km, 51.6° (Epoch: 26 April)

Date Brightness Start Highest point End Pass type
(mag) Time Alt. Az. Time Alt. Az. Time Alt. Az.
03 May -1.7 05:24:29 10° S 05:27:00 21° SE 05:29:32 10° E visible
04 May -1.0 04:33:58 10° SE 04:34:50 11° SE 04:35:41 10° ESE visible
05 May -3.3 05:15:18 10° SW 05:18:29 52° SE 05:21:39 10° ENE visible
